This demonstration page uses our WeatherBlox Daily Observations layout. Learn more.

Left ArrowRight Arrow

Hourly Observations for October 11, 2021

Temp ( °F °C ) Dew Point ( °F °C ) Humidity (%) Winds ( mph kmh ) Pressure ( in mb ) Visibility ( mi km ) Precip ( " mm )
12:53 am 00:53 Clear 61 16.1 27 -2.8 27 27 N 17 28 30.01 1016 10 16 N/A
1:53 am 01:53 Clear 59 15 24 -4.4 26 26 NNW 9 15 30.02 1017 10 16 N/A
2:53 am 02:53 Clear 58 14.4 26 -3.3 29 29 N 13 20 30.03 1017 10 16 N/A
3:53 am 03:53 Clear 57 13.9 26 -3.3 30 30 N 12 19 30.03 1017 10 16 N/A
4:53 am 04:53 Clear 55 12.8 26 -3.3 33 33 N 9 15 30.04 1017 10 16 N/A
5:53 am 05:53 Clear 54 12.2 26 -3.3 34 34 N 7 11 30.05 1018 10 16 N/A
6:53 am 06:53 Clear 52 11.1 26 -3.3 37 37 N 9 15 30.06 1018 10 16 N/A
7:53 am 07:53 Sunny 53 11.7 27 -2.8 37 37 N 8 13 30.06 1018 10 16 N/A
8:53 am 08:53 Sunny 57 13.9 27 -2.8 32 32 NNE 9 15 30.07 1018 10 16 N/A
9:53 am 09:53 Sunny 60 15.6 25 -3.9 26 26 N 15 24 30.06 1018 10 16 N/A
10:53 am 10:53 Sunny 62 16.7 25 -3.9 24 24 N 16 26 30.06 1018 10 16 N/A
11:53 am 11:53 Mostly Sunny 63 17.2 22 -5.6 21 21 N 17 28 30.05 1018 10 16 N/A
12:53 pm 12:53 Sunny 64 17.8 21 -6.1 19 19 N 22 35 30.03 1017 10 16 N/A
1:53 pm 13:53 Sunny 65 18.3 20 -6.7 18 18 N 18 30 30.01 1016 10 16 N/A
2:53 pm 14:53 Sunny 65 18.3 17 -8.3 16 16 NNW 18 30 29.99 1016 10 16 N/A
3:53 pm 15:53 Sunny 66 18.9 14 -10 13 13 N 24 39 29.99 1016 10 16 N/A
4:53 pm 16:53 Sunny 65 18.3 14 -10 14 14 N 22 35 29.99 1016 10 16 N/A
5:53 pm 17:53 Sunny 64 17.8 15 -9.4 15 15 N 16 26 30.00 1016 10 16 N/A
6:53 pm 18:53 Clear 61 16.1 16 -8.9 17 17 N 14 22 30.02 1017 10 16 N/A
7:53 pm 19:53 Clear 60 15.6 18 -7.8 19 19 N 15 24 30.04 1017 10 16 N/A
8:53 pm 20:53 Clear 59 15 20 -6.7 22 22 N 9 15 30.06 1018 10 16 N/A
9:53 pm 21:53 Clear 58 14.4 22 -5.6 25 25 N 10 17 30.07 1018 10 16 N/A
10:53 pm 22:53 Clear 57 13.9 23 -5 27 27 N 12 19 30.08 1019 10 16 N/A
11:53 pm 23:53 Clear 56 13.3 22 -5.6 27 27 N 10 17 30.09 1019 10 16 N/A

Powered by AerisWeather